Aeroporto :
LOGIN :

Iscrizione | Disclaimer

   EN    FR    IT 

 










Sommario :    VFR   VFR Marginale   IFR   IFR Intensivo   IFR Molto Intensivo
Visibilità : 
Base nubi : 
>= 8 km
>= 3000ft
5 / 8 km
1000 / 3000 ft
1500m / 5 km
500 / 1000 ft
800 / 1500m
200 / 500 ft
< 800m
< 200 ft
Simboli :   Temporali  Nebbia  Neve Forte  Precipitazioni Forti  Vento > 20 kt
SIGMETs :   Varie  Temporali  Ghiacco  Turbolenza  Onda orograficha  Ceneri Vulcaniche






- Altitudine del aeroporto : 117 ft
- Codice IATA : NWI


EGSH - Norwich

ULTIMO METAR :
  • 280750Z 12008KT 090V160 9999 FEW020 16/08 Q1036

METARs OBSOLETI :
  • 280720Z 11005KT 080V160 9999 FEW020 15/08 Q1037
  • 280650Z 10004KT 070V140 CAVOK 14/10 Q1037
  • 280620Z AUTO 08004KT 9999 NCD 13/09 Q1037
  • 280550Z AUTO VRB02KT 9999 NCD 11/09 Q1037
  • 280520Z AUTO VRB01KT 9999 NCD 09/07 Q1037

TAF TAF EGSH
Valido dal 28 a 03 ore il 28 a 12 ore UTC


280158Z 2803/2812 10005KT 9999 FEW045
TEMPO 2803/2806 6000
PROB30 2803/2806 2000 BR
ATIS : +44 1603 420 640



MetMap, La meteo Aeronautica in un colpo d'occhio ! - Copyright ORBIFLY Dicembre 2007 - Disclaimer

ORBIFLY MET'MAP TEAM :

Programmazione e sviluppo : Alexandra Zaïnal
Concezione : Baudouin d'Aumeries
Aiuto per la programmazione : Marc-Olivier Méhu
Supporto tecnico e logistico : Manuel Goepfert
Aiuto per la traduzione : Arnaldo La Scala

Contatto : metmap@orbifly.com




FONTI E CREDITI :

   NOAA